Saginaw Browne, MI

5:14 AM EST on November 20, 2017 (GMT -0500)
Saginaw County-Browne

Weather History for KHYX - January, 2013

Change the Weather History Date:

Wednesday, January 9, 2013

  Actual Average (KMBS) Record (KMBS)
Temperature  
Mean Temperature 37 °F -  
Max Temperature 44 °F 27 °F 51 °F (2008)
Min Temperature 30 °F 15 °F -5 °F (2014)
Degree Days  
Heating Degree Days 28    
Moisture  
Dew Point 29 °F    
Average Humidity 74    
Maximum Humidity 87    
Minimum Humidity 53    
Precipitation  
Precipitation 0.00 in - - ()
Sea Level Pressure  
Sea Level Pressure 30.09 in    
Wind  
Wind Speed 16 mph (SW)    
Max Wind Speed 32 mph    
Max Gust Speed 39 mph    
Visibility 10 miles    
Events Rain    
Averages and records for this station are not official NWS values.
T = Trace of Precipitation, MM = Missing Value Source: NWS Daily Summary

Daily Weather History Graph

Daily Weather History Graph

Search for Another Location

Airport or City:

Trip Planner

Search our weather history database for the weather conditions in past years. The results will help you decide how hot, cold, wet, or windy it might be!

Date:

Astronomy

Jan. 09, 2013 Rise Set
Actual Time 8:07 AM EST 5:18 PM EST
Civil Twilight 7:35 AM EST 5:50 PM EST
Nautical Twilight 6:59 AM EST 6:26 PM EST
Astronomical Twilight 6:25 AM EST 7:00 PM EST
Moon 5:45 AM EST (1/9) 3:18 PM EST (1/9)
Length of Visible Light 10h 15m
Length of Day
9h 10m
Waning Crescent, 6% of the Moon is Illuminated
Jan 9
Waning Crescent
Jan 11
New
Jan 18
First Quarter
Jan 26
Full
Feb 3
Last Quarter

Hourly Weather History & Observations

Time (EST) Temp. Windchill Dew Point Humidity Pressure Visibility Wind Dir Wind Speed Gust Speed Precip Events Conditions
12:13 AM 32.0 °F 23.0 °F 28.4 °F 87% 30.09 in 7.0 mi South 11.5 mph - N/A   Clear
12:33 AM 32.0 °F 21.6 °F 28.4 °F 87% 30.08 in 7.0 mi South 15.0 mph 19.6 mph N/A   Clear
12:53 AM 32.0 °F 22.5 °F 28.4 °F 87% 30.07 in 7.0 mi SSW 12.7 mph - N/A   Clear
1:13 AM 32.0 °F 23.0 °F 28.4 °F 87% 30.06 in 7.0 mi SSW 11.5 mph - N/A   Clear
1:33 AM 32.0 °F 22.5 °F 28.4 °F 87% 30.04 in 7.0 mi SSW 12.7 mph 18.4 mph N/A   Clear
1:53 AM 32.0 °F 22.5 °F 28.4 °F 87% 30.02 in 7.0 mi SSW 12.7 mph 17.3 mph N/A   Scattered Clouds
2:13 AM 32.0 °F 21.6 °F 28.4 °F 87% 30.01 in 10.0 mi SSW 15.0 mph 18.4 mph N/A   Scattered Clouds
2:34 AM 33.8 °F 24.3 °F 28.4 °F 81% 30.01 in 10.0 mi SSW 13.8 mph 19.6 mph N/A   Scattered Clouds
2:54 AM 33.8 °F 24.8 °F 28.4 °F 81% 30.02 in 10.0 mi SSW 12.7 mph 19.6 mph N/A   Clear
3:14 AM 33.8 °F 23.2 °F 28.4 °F 81% 30.01 in 10.0 mi SSW 17.3 mph 21.9 mph N/A   Clear
3:34 AM 33.8 °F 23.5 °F 28.4 °F 81% 30.01 in 10.0 mi SSW 16.1 mph - N/A   Scattered Clouds
3:54 AM 35.6 °F 25.9 °F 28.4 °F 75% 30.00 in 10.0 mi SSW 16.1 mph - N/A   Mostly Cloudy
4:14 AM 35.6 °F 25.5 °F 28.4 °F 75% 29.99 in 10.0 mi SSW 17.3 mph 23.0 mph N/A   Overcast
4:34 AM 35.6 °F 25.9 °F 28.4 °F 75% 29.96 in 10.0 mi SSW 16.1 mph 19.6 mph N/A   Overcast
4:54 AM 35.6 °F 25.5 °F 28.4 °F 75% 29.97 in 10.0 mi SSW 17.3 mph 24.2 mph N/A   Overcast
5:14 AM 35.6 °F 25.5 °F 30.2 °F 81% 29.96 in 10.0 mi SSW 17.3 mph - N/A   Overcast
5:35 AM 35.6 °F 26.6 °F 30.2 °F 81% 29.94 in 10.0 mi South 13.8 mph - N/A   Overcast
5:55 AM 35.6 °F 25.2 °F 32.0 °F 87% 29.94 in 4.0 mi South 18.4 mph - N/A Rain Light Rain
6:15 AM 35.6 °F 27.1 °F 32.0 °F 87% 29.95 in 10.0 mi SSW 12.7 mph 23.0 mph N/A   Overcast
6:35 AM 35.6 °F 27.1 °F 32.0 °F 87% 29.95 in 10.0 mi SSW 12.7 mph - N/A   Mostly Cloudy
6:55 AM 35.6 °F 26.2 °F 32.0 °F 87% 29.93 in 10.0 mi SSW 15.0 mph - N/A   Scattered Clouds
7:15 AM 35.6 °F 25.2 °F 32.0 °F 87% 29.93 in 10.0 mi SSW 18.4 mph 21.9 mph N/A   Clear
7:35 AM 35.6 °F 25.9 °F 32.0 °F 87% 29.93 in 10.0 mi SSW 16.1 mph 21.9 mph N/A   Clear
7:55 AM 35.6 °F 25.9 °F 32.0 °F 87% 29.94 in 10.0 mi SW 16.1 mph - N/A   Clear
8:15 AM 35.6 °F 25.5 °F 32.0 °F 87% 29.95 in 10.0 mi SW 17.3 mph 24.2 mph N/A   Clear
8:35 AM 35.6 °F 25.5 °F 32.0 °F 87% 29.96 in 10.0 mi SW 17.3 mph - N/A   Clear
8:51 AM 37.4 °F 28.2 °F 32.0 °F 81% 29.97 in 10.0 mi SW 16.1 mph - N/A   Mostly Cloudy
9:11 AM 37.4 °F 27.8 °F 32.0 °F 81% 29.98 in 10.0 mi WSW 17.3 mph 21.9 mph N/A   Overcast
9:31 AM 37.4 °F 27.5 °F 32.0 °F 81% 29.98 in 10.0 mi SW 18.4 mph 25.3 mph N/A   Mostly Cloudy
9:51 AM 37.4 °F 27.2 °F 32.0 °F 81% 29.99 in 10.0 mi WSW 19.6 mph 27.6 mph N/A   Scattered Clouds
10:11 AM 39.2 °F 29.3 °F 32.0 °F 75% 29.99 in 10.0 mi WSW 20.7 mph 31.1 mph N/A   Clear
10:31 AM 41.0 °F 32.5 °F 32.0 °F 70% 30.00 in 10.0 mi WSW 17.3 mph 29.9 mph N/A   Clear
10:51 AM 41.0 °F 31.6 °F 32.0 °F 70% 30.01 in 10.0 mi WSW 20.7 mph 28.8 mph N/A   Clear
11:11 AM 41.0 °F 30.7 °F 32.0 °F 70% 30.01 in 10.0 mi WSW 25.3 mph 33.4 mph N/A   Clear
11:31 AM 41.0 °F 31.9 °F 32.0 °F 70% 30.01 in 10.0 mi WSW 19.6 mph 26.5 mph N/A   Clear
11:51 AM 41.0 °F 31.6 °F 32.0 °F 70% 30.02 in 10.0 mi WSW 20.7 mph 28.8 mph N/A   Clear
12:12 PM 41.0 °F 30.9 °F 32.0 °F 70% 30.02 in 10.0 mi WSW 24.2 mph 34.5 mph N/A   Clear
12:32 PM 42.8 °F 34.0 °F 32.0 °F 66% 30.01 in 10.0 mi WSW 20.7 mph 26.5 mph N/A   Clear
12:52 PM 42.8 °F 33.5 °F 32.0 °F 66% 30.01 in 10.0 mi WSW 23.0 mph 29.9 mph N/A   Clear
1:12 PM 42.8 °F 33.1 °F 32.0 °F 66% 30.01 in 10.0 mi West 25.3 mph 34.5 mph N/A   Clear
1:32 PM 44.6 °F 35.9 °F 30.2 °F 57% 30.01 in 10.0 mi WSW 23.0 mph 31.1 mph N/A   Clear
1:52 PM 44.6 °F 35.9 °F 30.2 °F 57% 30.01 in 10.0 mi WSW 23.0 mph 33.4 mph N/A   Clear
2:12 PM 44.6 °F 35.9 °F 30.2 °F 57% 30.01 in 10.0 mi WSW 23.0 mph 36.8 mph N/A   Clear
2:32 PM 44.6 °F 35.1 °F 28.4 °F 53% 30.02 in 10.0 mi WSW 27.6 mph 39.1 mph N/A   Clear
2:52 PM 44.6 °F 34.9 °F 28.4 °F 53% 30.04 in 10.0 mi WSW 28.8 mph 36.8 mph N/A   Clear
3:12 PM 44.6 °F 34.4 °F 28.4 °F 53% 30.06 in 10.0 mi West 32.2 mph 36.8 mph N/A   Clear
3:33 PM 44.6 °F 35.3 °F 28.4 °F 53% 30.08 in 10.0 mi West 26.5 mph 34.5 mph N/A   Clear
3:53 PM 42.8 °F 32.7 °F 28.4 °F 57% 30.10 in 10.0 mi West 27.6 mph 39.1 mph N/A   Clear
4:13 PM 42.8 °F 32.7 °F 28.4 °F 57% 30.12 in 10.0 mi West 27.6 mph 35.7 mph N/A   Scattered Clouds
4:33 PM 42.8 °F 32.7 °F 28.4 °F 57% 30.14 in 10.0 mi West 27.6 mph 36.8 mph N/A   Scattered Clouds
4:53 PM 41.0 °F 31.4 °F 28.4 °F 61% 30.15 in 10.0 mi West 21.9 mph 34.5 mph N/A   Scattered Clouds
5:13 PM 41.0 °F 30.7 °F 28.4 °F 61% 30.16 in 10.0 mi West 25.3 mph 35.7 mph N/A   Clear
5:33 PM 39.2 °F 29.3 °F 26.6 °F 61% 30.17 in 10.0 mi West 20.7 mph 34.5 mph N/A   Clear
5:53 PM 37.4 °F 27.5 °F 26.6 °F 65% 30.19 in 10.0 mi West 18.4 mph 27.6 mph N/A   Clear
6:13 PM 37.4 °F 26.4 °F 26.6 °F 65% 30.21 in 10.0 mi West 23.0 mph 28.8 mph N/A   Clear
6:33 PM 37.4 °F 27.2 °F 26.6 °F 65% 30.23 in 10.0 mi West 19.6 mph 25.3 mph N/A   Clear
6:54 PM 37.4 °F 26.9 °F 26.6 °F 65% 30.25 in 10.0 mi West 20.7 mph 26.5 mph N/A   Clear
7:14 PM 37.4 °F 27.8 °F 26.6 °F 65% 30.28 in 10.0 mi West 17.3 mph 23.0 mph N/A   Clear
7:34 PM 37.4 °F 27.2 °F 26.6 °F 65% 30.29 in 10.0 mi West 19.6 mph 25.3 mph N/A   Clear
7:54 PM 35.6 °F 25.9 °F 26.6 °F 70% 30.30 in 10.0 mi West 16.1 mph 23.0 mph N/A   Clear
9:14 PM 33.8 °F 27.7 °F 26.6 °F 75% 30.36 in 10.0 mi West 6.9 mph - N/A   Clear
9:35 PM 33.8 °F 27.0 °F 26.6 °F 75% 30.36 in 10.0 mi West 8.1 mph - N/A   Clear
9:55 PM 32.0 °F 25.6 °F 26.6 °F 80% 30.37 in 10.0 mi West 6.9 mph - N/A   Clear
10:15 PM 33.8 °F 27.7 °F 26.6 °F 75% 30.38 in 10.0 mi West 6.9 mph - N/A   Clear
10:35 PM 32.0 °F 27.5 °F 26.6 °F 80% 30.38 in 10.0 mi West 4.6 mph - N/A   Clear
10:55 PM 32.0 °F 28.7 °F 26.6 °F 80% 30.39 in 10.0 mi WSW 3.5 mph - N/A   Clear
11:15 PM 32.0 °F 27.5 °F 26.6 °F 80% 30.39 in 10.0 mi WSW 4.6 mph - N/A   Clear
11:35 PM 30.2 °F - 26.6 °F 86% 30.40 in 10.0 mi Calm Calm - N/A   Clear
11:55 PM 30.2 °F 26.7 °F 26.6 °F 86% 30.40 in 10.0 mi WSW 3.5 mph - N/A   Clear